Regional Weather Roundup
Issued by NWS

Home | Current Version | Previous Version | Graphics & Text | Print | Product List | Glossary Off
Versions: 1 2 3 4 5 6 7 8 9 10 11 12 13 14 15 16 17 18 19 20 21 22 23 24 25 26 27 28 29 30 31 32 33 34 35 36 37 38 39 40 41 42 43 44 45 46 47 48 49 50

000
ASUS43 KLSX 282307
RWRMO
WEATHER SUMMARY FOR MISSOURI
NATIONAL WEATHER SERVICE SPRINGFIELD MO
600 PM CDT WED JUN 28 2017

NOTE: "FAIR" INDICATES FEW OR NO CLOUDS BELOW 12,000 FEET WITH NO
       SIGNIFICANT WEATHER AND/OR OBSTRUCTIONS TO VISIBILITY.
       CURRENT SKY AND/OR WEATHER CONDITIONS ARE NOT AVAILABLE FOR
       CHILLICOTHE AND FARMINGTON.

MOZ001>031-035>038-043-044-053-054-290000-
...NORTHERN AND WESTERN MISSOURI...

CITY           SKY/WX    TMP DP  RH WIND       PRES   REMARKS
KANSAS CTY INT PTSUNNY   86  71  60 S22G32    29.72F HX  91
KANSAS C DTWN  PTSUNNY   88  69  53 S28G37    29.72F HX  92
LEE`S SUMMIT   SUNNY     87  70  56 S30G39    29.74F HX  92
ST JOSEPH      SUNNY     88  72  58 S31G39    29.65F HX  94
CHILLICOTHE      N/A     86  70  58 S14G29    29.72F HX  90
KIRKSVILLE     PTSUNNY   83  69  62 S14G23    29.77S

$$
MOZ066>068-077>081-088>096-101>105-290000-
...SOUTHWEST MISSOURI...

CITY           SKY/WX    TMP DP  RH WIND       PRES   REMARKS
SPRINGFIELD    SUNNY     85  66  53 S17       29.87F
JOPLIN         MOSUNNY   87  68  52 S18G29    29.84F HX  90
BRANSON        MOSUNNY   82  63  51 S9G18     29.93F

$$
MOZ032>034-039>042-045>050-055>058-069>072-290000-
...CENTRAL MISSOURI...

CITY           SKY/WX    TMP DP  RH WIND       PRES   REMARKS
COLUMBIA       SUNNY     86  67  52 S15       29.81F
JEFFERSON CITY SUNNY     88  63  43 S16G28    29.80F
ROLLA          SUNNY     84  64  50 S14G30    29.87F
SEDALIA        SUNNY     86  69  56 S18G26    29.80F HX  90
WHITEMAN AFB   MOSUNNY   86  71  61 S21G28    29.76F HX  91
WARRENSBURG    MOSUNNY   86  68  54 S20G28    29.76F
OSAGE BEACH    SUNNY     86  67  52 S14       29.85F

$$
MOZ051-052-059>065-290000-
...EAST CENTRAL MISSOURI...

CITY           SKY/WX    TMP DP  RH WIND       PRES   REMARKS
ST LOUIS INTL  MOSUNNY   90  61  37 SW20G26   29.86F HX  90
SPIRIT OF STL  MOSUNNY   87  63  44 S13G22    29.84F
ST CHARLES     SUNNY     88  64  44 S15       29.83F

$$
MOZ072>076-082>087-097>100-106>115-290000-
...SOUTH CENTRAL AND SOUTHEAST MISSOURI...

CITY           SKY/WX    TMP DP  RH WIND       PRES   REMARKS
CAPE GIRARDEAU MOSUNNY   84  63  49 S15       29.93F
FARMINGTON     SUNNY     84  65  52 S16G24    29.92F
POPLAR BLUFF   CLOUDY    84  67  56 S13G22    29.93F
WEST PLAINS    MOSUNNY   84  63  49 S12       29.94F

$$



USA.gov is the U.S. government's official web portal to all federal, state and local government web resources and services.